STARLINK-1156, 45054

Orbit data source: Space-Track

STARLINK-1156, 45054 is a payload satellite owned by SpaceX/Seattle (US) in LEO that was launched on Wed, 29 Jan 2020 UTC via an FALCON 9 launch vehicle from the Air Force Eastern Test Range (AFETR). Payload-class satellites include a variety of spacecraft equipped with specific instruments for various scientific and technological missions. These include communications satellites like Starlink; space stations such as the ISS; scientific satellites like the Hubble; Earth observation satellites from companies like Planet Labs, Umbra, and HawkEye 360; GPS; miniature CubeSats for education and research; and military/defense satellites.

Loading next visibility...
Identifier
45054, 2020-006L
Orbit
LEO
Country
Flag of USUS
Related business
Manufacturer
SpaceX/Seattle
Mission
Partially operational Commercial Communications
Bus & Motor
STARLINK, Unknown motor
Mass
260 kg wet, ~248 kg dry
Launch date (UTC)
2020-01-29 (6 years ago)
Launch vehicle
FALCON 9
Launch site
Air Force Eastern Test Range (AFETR)
Object type
Payload
Rocket body
Debris
Shape & HBR
Box + 1 Pan, 10.1 m
Radar Cross Section
13.562 m², Large (>1 m²)

Expand to show TLE details & history
Last TLE update: 20 hours ago

TLE from 20 hours ago
0 STARLINK-1156
1 45054U 20006L   26195.87368727  .00031500  00000-0  83187-3 0  9996
2 45054  53.1563  47.5401 0003883 124.5905 235.5466 15.38194400356057
Epoch: 2026-07-14T20:58Z
TLE epoch observation values (Epoch: 2026-07-14T20:58:06.580Z)
Latitude
Longitude
160.27509°
Altitude
453.852 km
Speed
7.641 km/s
True Right ascension
03h 10m 09s
True Declination
0° 00' 00"
Sunlit
Object was in daylight at epoch
Visualization orbit readout
Latitude
Unknown
Longitude
Unknown
Altitude
Unknown
Speed
Unknown
Apparent Right ascension
Unknown
Apparent Declination
Unknown
Sunlit
N/A
Visualization observer readout
Local Sidereal Time
05:21:35
Azimuth
Unknown
Elevation
Unknown
Doppler factor
Unknown
Orbital elements
Apogee altitude
454.359 km
Perigee altitude
449.055 km
Semi-major axis
6,829.844 km
Eccentricity
0.00039
Inclination
53.1563°
RAAN
47.5401°
Arg. of periapsis
124.5905°
True anomaly
235.50992°
Mean anomaly
235.5466°
Eccentric anomaly
235.52826°
Mean motion
3.84527 °/min
Orbital period
93.62 mins
BSTAR
0.00083187
Loading maneuver chart data...
Computing Atmospheric mass density...

Documentation

Showing up to 5 results
|